TimeCDT,TemperatureF,Dew PointF,Humidity,Sea Level PressureIn,VisibilityMPH,Wind Direction,Wind SpeedMPH,Gust SpeedMPH,PrecipitationIn,Events,Conditions,WindDirDegrees,DateUTC
12:53 AM,73.9,64.0,71,30.13,10.0,ENE,5.8,-,N/A,,Mostly Cloudy,70,2013-08-04 05:53:00
1:53 AM,73.0,63.0,71,30.12,10.0,East,6.9,-,N/A,,Overcast,80,2013-08-04 06:53:00
2:53 AM,72.0,63.0,73,30.10,10.0,East,4.6,-,N/A,,Overcast,90,2013-08-04 07:53:00
3:53 AM,72.0,63.0,73,30.14,10.0,East,5.8,-,N/A,,Overcast,80,2013-08-04 08:53:00
4:53 AM,71.1,62.1,73,30.12,10.0,ENE,4.6,-,N/A,,Mostly Cloudy,70,2013-08-04 09:53:00
5:53 AM,70.0,61.0,73,30.12,10.0,East,5.8,-,N/A,,Mostly Cloudy,80,2013-08-04 10:53:00
6:53 AM,70.0,61.0,73,30.12,10.0,East,6.9,-,N/A,,Overcast,100,2013-08-04 11:53:00
7:53 AM,71.1,61.0,70,30.14,10.0,East,6.9,-,N/A,,Overcast,80,2013-08-04 12:53:00
8:53 AM,72.0,61.0,68,30.14,10.0,East,6.9,-,N/A,,Overcast,100,2013-08-04 13:53:00
9:53 AM,73.0,62.1,68,30.16,10.0,ESE,5.8,-,N/A,,Mostly Cloudy,110,2013-08-04 14:53:00
10:53 AM,75.0,62.1,64,30.17,10.0,SE,8.1,-,N/A,,Overcast,140,2013-08-04 15:53:00
11:53 AM,73.9,63.0,68,30.16,10.0,SSE,6.9,-,N/A,,Overcast,150,2013-08-04 16:53:00
12:53 PM,75.0,64.0,69,30.14,10.0,SE,9.2,-,N/A,,Overcast,130,2013-08-04 17:53:00
1:04 PM,73.4,64.4,73,30.15,10.0,SE,8.1,-,N/A,,Overcast,140,2013-08-04 18:04:00
1:53 PM,73.9,66.0,76,30.13,10.0,SE,8.1,-,N/A,,Overcast,130,2013-08-04 18:53:00
2:34 PM,75.2,68.0,78,30.13,10.0,SE,6.9,-,N/A,,Scattered Clouds,140,2013-08-04 19:34:00
2:53 PM,75.9,68.0,76,30.11,10.0,ESE,5.8,-,N/A,,Partly Cloudy,110,2013-08-04 19:53:00
3:09 PM,75.2,68.0,78,30.13,10.0,East,6.9,-,N/A,,Mostly Cloudy,100,2013-08-04 20:09:00
3:53 PM,75.9,69.1,79,30.09,10.0,SSE,9.2,-,N/A,,Partly Cloudy,150,2013-08-04 20:53:00
4:41 PM,75.2,69.8,83,30.11,10.0,ESE,5.8,-,N/A,,Mostly Cloudy,120,2013-08-04 21:41:00
4:53 PM,75.9,69.1,79,30.09,10.0,SE,8.1,-,N/A,,Overcast,130,2013-08-04 21:53:00
5:09 PM,75.2,69.8,83,30.10,10.0,SE,6.9,-,N/A,,Mostly Cloudy,130,2013-08-04 22:09:00
5:35 PM,75.2,69.8,83,30.10,10.0,SE,8.1,-,0.00,,Overcast,130,2013-08-04 22:35:00
5:53 PM,73.9,69.1,85,30.07,10.0,SE,8.1,-,0.00,,Overcast,130,2013-08-04 22:53:00
6:17 PM,73.4,69.8,88,30.07,10.0,SE,8.1,-,N/A,,Mostly Cloudy,130,2013-08-04 23:17:00
6:53 PM,73.9,69.1,85,30.05,10.0,SE,8.1,-,N/A,,Mostly Cloudy,140,2013-08-04 23:53:00
7:33 PM,73.4,69.8,88,30.06,10.0,SSE,8.1,29.9,N/A,,Partly Cloudy,150,2013-08-05 00:33:00
7:53 PM,73.0,69.1,87,30.05,10.0,SSE,10.4,-,N/A,,Scattered Clouds,150,2013-08-05 00:53:00
8:10 PM,73.4,69.8,88,30.07,10.0,SSE,5.8,-,N/A,,Mostly Cloudy,150,2013-08-05 01:10:00
8:21 PM,73.4,69.8,88,30.07,10.0,SSE,6.9,-,N/A,,Mostly Cloudy,150,2013-08-05 01:21:00
8:51 PM,71.6,69.8,94,30.07,10.0,SSE,6.9,-,N/A,,Mostly Cloudy,150,2013-08-05 01:51:00
8:53 PM,72.0,69.1,91,30.06,10.0,SSE,6.9,-,N/A,,Overcast,150,2013-08-05 01:53:00
9:53 PM,72.0,69.1,91,30.07,10.0,ENE,4.6,-,0.00,,Overcast,60,2013-08-05 02:53:00
10:03 PM,71.6,69.8,94,30.09,10.0,East,4.6,-,N/A,,Overcast,100,2013-08-05 03:03:00
10:25 PM,71.6,69.8,94,30.10,10.0,ENE,5.8,-,N/A,,Overcast,70,2013-08-05 03:25:00
10:53 PM,72.0,69.1,91,30.08,10.0,ESE,4.6,-,N/A,,Overcast,110,2013-08-05 03:53:00
11:27 PM,71.6,69.8,94,30.09,10.0,ESE,5.8,-,N/A,,Overcast,120,2013-08-05 04:27:00
11:53 PM,72.0,69.1,91,30.06,10.0,SE,5.8,-,N/A,,Overcast,130,2013-08-05 04:53:00